Location: Vidojevica
(43.1414°N, 21.5558°E)
Time: 18:42:01
(UTC+02:00)

Tiangong 2 - Pass Details

Date: 20 August 2018
Orbit: 383 x 394 km, 42.8° (Epoch: 24 September)

Event Time Altitude Azimuth Distance (km) Brightness Sun altitude
Exits shadow 04:34:32 23° 236° (WSW) 871 2.2 -12.5°
Maximum altitude 04:36:15 57° 165° (SSE) 461 1.3 -12.2°
Drops below altitude 10° 04:39:24 10° 86° (E) 1,416 5.0 -11.7°
Sets 04:41:30 0° 82° (E) 2,274 6.4 -11.4°
